TimeMDT,TemperatureF,Dew PointF,Humidity,Sea Level PressureIn,VisibilityMPH,Wind Direction,Wind SpeedMPH,Gust SpeedMPH,PrecipitationIn,Events,Conditions,WindDirDegrees,DateUTC
12:55 AM,34.0,14.0,44,30.21,10.0,NNW,5.8,-,N/A,,Clear,330,2012-10-05 06:55:00
1:55 AM,32.0,12.9,45,30.22,10.0,ESE,4.6,-,N/A,,Clear,120,2012-10-05 07:55:00
2:55 AM,30.0,12.0,47,30.23,10.0,Calm,Calm,-,N/A,,Clear,0,2012-10-05 08:55:00
3:55 AM,28.9,12.0,49,30.22,10.0,Calm,Calm,-,N/A,,Clear,0,2012-10-05 09:55:00
4:55 AM,27.0,12.0,53,30.23,10.0,Calm,Calm,-,N/A,,Clear,0,2012-10-05 10:55:00
5:55 AM,27.0,10.9,51,30.25,10.0,Calm,Calm,-,N/A,,Clear,0,2012-10-05 11:55:00
6:55 AM,23.0,12.0,63,30.31,10.0,WNW,3.5,-,N/A,,Clear,290,2012-10-05 12:55:00
7:55 AM,21.9,12.9,68,30.33,10.0,Calm,Calm,-,N/A,,Clear,0,2012-10-05 13:55:00
8:55 AM,28.0,12.9,53,30.33,10.0,Calm,Calm,-,N/A,,Clear,0,2012-10-05 14:55:00
9:55 AM,32.0,16.0,52,30.32,10.0,Calm,Calm,-,N/A,,Clear,0,2012-10-05 15:55:00
10:55 AM,37.0,16.0,42,30.30,10.0,Calm,Calm,-,N/A,,Clear,0,2012-10-05 16:55:00
12:56 PM,45.0,18.0,34,30.25,10.0,Calm,Calm,-,N/A,,Unknown,0,2012-10-05 18:56:00
1:55 PM,48.0,16.0,28,30.21,8.0,Calm,Calm,-,N/A,,Clear,0,2012-10-05 19:55:00
2:55 PM,52.0,17.1,25,30.17,8.0,Calm,Calm,-,N/A,,Clear,0,2012-10-05 20:55:00
3:55 PM,55.0,14.0,20,30.15,10.0,North,8.1,-,N/A,,Clear,10,2012-10-05 21:55:00
4:55 PM,55.0,10.9,17,30.14,10.0,NNE,10.4,-,N/A,,Clear,20,2012-10-05 22:55:00
5:55 PM,54.0,10.0,17,30.16,10.0,North,8.1,-,N/A,,Clear,360,2012-10-05 23:55:00
6:55 PM,48.9,9.0,20,30.20,10.0,NNE,9.2,-,N/A,,Clear,30,2012-10-06 00:55:00
7:55 PM,41.0,10.0,28,30.26,10.0,NW,6.9,-,N/A,,Clear,320,2012-10-06 01:55:00
8:55 PM,41.0,9.0,27,30.27,10.0,Calm,Calm,-,N/A,,Clear,0,2012-10-06 02:55:00
9:55 PM,37.9,7.0,28,30.28,10.0,Calm,Calm,-,N/A,,Clear,0,2012-10-06 03:55:00
10:55 PM,33.1,9.0,37,30.30,10.0,NNW,4.6,-,N/A,,Clear,330,2012-10-06 04:55:00
11:55 PM,34.0,6.1,31,30.29,10.0,NW,5.8,-,N/A,,Clear,320,2012-10-06 05:55:00